Weather in Nazartepa

Uzbekistan     38°45′23″N   65°29′29″E
temp.,
°C
wind,
m/s
gust,
m/s
humid.,
%
clouds,
%
prec.,
mm/h
press.,
hPa
HPBL,
m
16 september, thu
thu1623:00+24n47160 0.0 101187
02:00+23nne33180 0.0 101025
05:00+22n33190 0.0 101026
08:00+25n24160 0.0 1011116
11:00+34nne34100 0.0 1010949
14:00+37n4380 0.0 10082092
17:00+36n5590 0.0 10071915
20:00+29nnw44150 0.0 100742
17 september, fri
fri1723:00+25ne47180 0.0 100689
02:00+23ne44200 0.0 100547
05:00+22ne44220 0.0 100541
08:00+26ene34160 0.0 1005115
11:00+34sse1290 0.0 1005783
14:00+38wsw1160 0.0 10032007
17:00+38nne4460 0.0 10022397
20:00+30nnw44100 0.0 100438
18 september, sat
sat1823:00+26nne45130 0.0 100452
02:00+24ne45150 0.0 100459
05:00+23ene44150 0.0 100437
08:00+27e23120 0.0 100697
11:00+35s4470 0.0 1006746
14:00+38ssw4360 0.0 10041395
17:00+38s2160 0.0 10031424
20:00+28sw12100 0.0 100511
19 september, sun
sun1923:00+26nw33160 0.0 100621
02:00+25nnw44190 0.0 100637
05:00+23nnw34220 0.0 100736
08:00+26nnw48200 0.0 1009199
11:00+35nw45120 0.0 1009901
14:00+37nw76100 0.0 10081890
17:00+34nnw88120 0.0 10091257
20:00+27nnw713160 0.0 1011385
20 september, mon
mon2023:00+23nnw511190 0.0 1011203
02:00+22nnw611210 0.0 1011202
05:00+20n59220 0.0 1012179
08:00+21n68180 0.0 1013259
11:00+30n77120 0.0 1012742
14:00+33nnw77110 0.0 10111461
17:00+33nnw66110 0.0 10101668
20:00+24nnw511190 0.0 1011167